Regional Weather Roundup
Issued by NWS Upton, NY

Current Version | Previous Version | Text Only | Print | Product List | Glossary On
Versions: 1 2 3 4 5 6 7 8 9 10 11 12 13 14 15 16 17 18 19 20 21 22 23 24 25 26 27 28 29 30 31 32 33 34 35 36 37 38 39 40 41 42 43 44 45 46 47 48 49 50
000
ASUS41 KOKX 222205
RWROKX

REGIONAL WEATHER ROUNDUP
NATIONAL WEATHER SERVICE NEW YORK NY
600 PM EDT MON SEP 22 2014

NOTE: "FAIR" INDICATES FEW OR NO CLOUDS BELOW 12,000 FEET WITH NO
SIGNIFICANT WEATHER AND/OR OBSTRUCTIONS TO VISIBILITY.

NYZ071-072-176-178-NJZ106-104-222300-
NEW YORK CITY METRO AREA


CITY           SKY/WX    TMP DP  RH WIND       PRES   REMARKS
CENTRAL PARK   CLEAR     65  42  43 NW8       30.02R
LAGUARDIA APRT MOCLDY    66  43  43 NW13G24   29.98R
KENNEDY INTL   PTCLDY    67  42  40 NW21      29.99R
NEWARK/LIBERTY PTCLDY    66  43  43 NW16G26   29.99R
BRNX BOT. GARD   N/A     64  43  45 NW14      30.01R
TETERBORO      CLEAR     65  41  41 NW14G22   29.99R
$$

NYZ177-179-078>081-222300-
LONG ISLAND NEW YORK

CITY           SKY/WX    TMP DP  RH WIND       PRES   REMARKS
FARMINGDALE    CLEAR     68  44  42 NW12      29.97R
ISLIP          MOCLDY    66  44  45 NW14G24   29.95R
SHIRLEY        CLEAR     67  46  47 NW14G22   29.96R
WESTHAMPTON    CLEAR     68  46  45 W17G26    29.95R
MONTAUK POINT    N/A     70  51  51 W10G20    29.92R
$$

NYZ052-065-067-222300-
HUDSON VALLEY

CITY           SKY/WX    TMP DP  RH WIND       PRES   REMARKS
WHITE PLAINS   PTCLDY    61  41  47 NW18      29.98R
NEWBURGH       PTCLDY    59  41  51 NW21G31   30.01R
MONTGOMERY     CLEAR     59  39  47 NW14G23   30.01R
POUGHKEEPSIE   CLEAR     62  38  40 W13       29.99R
ALBANY         MOCLDY    56  39  53 W20G26    30.02R
$$

NJZ001-105-106-008-010-013-015-019>022-104-222300-
NEW JERSEY

CITY           SKY/WX    TMP DP  RH WIND       PRES   REMARKS
NEWARK/LIBERTY PTCLDY    66  43  43 NW16G26   29.99R
TETERBORO      CLEAR     65  41  41 NW14G22   29.99R
CALDWELL       CLEAR     63  39  41 NW13G23   30.01R
MORRISTOWN     PTCLDY    63  43  48 NW8G22    30.02R
SOMERVILLE     CLEAR     66  42  41 NW9       30.00R
LINDEN         FAIR      71  46  40 NW15G23   30.01R
SUSSEX         CLEAR     62  41  46 VRB5G17   30.02R
ANDOVER          N/A     59  42  53 N8G18     30.03R
TRENTON        CLEAR     67  41  38 N13G20    30.01R
MILLVILLE      MOSUNNY   67  48  50 NW9       30.03R
ATLANTIC CITY  CLOUDY    67  50  54 NW13      30.01R
WRIGHTSTOWN    CLEAR     66  46  48 NW9G17    29.99R
TOMS RIVER     CLEAR     68  46  45 NW6       30.00R
BELMAR         PTCLDY    66  46  48 W9        29.99R
$$

PAZ047>061-062-071-222300-
EASTERN PENNSYLVANIA

CITY           SKY/WX    TMP DP  RH WIND       PRES   REMARKS
PHILADELPHIA   PTSUNNY   69  46  43 NW14      30.03R
ALLENTOWN      SUNNY     64  41  42 NW13      30.04R
SCRANTON       MOSUNNY   59  39  47 N17G23    30.06R
$$

CTZ002-004>006-009-010-012-RIZ004-006-007-MAZ004-011-015-222300-
SOUTHERN NEW ENGLAND
 IN CT

CITY           SKY/WX    TMP DP  RH WIND       PRES   REMARKS
BRADLEY INTL   PTCLDY    64  43  46 NW15      29.93R
HARTFORD       CLEAR     65  42  43 NW9       29.93R
DANBURY        CLEAR     62  42  47 W9G17     29.98R
WTRBRY/OXFORD  PTCLDY   N/A N/A N/A W10G16    29.96
BRIDGEPORT     CLEAR     67  44  43 W13G21    29.96R
MERIDEN        CLEAR     66  44  45 NW14G21   29.93R
NEW HAVEN      CLEAR     68  45  43 NW12G17   29.94R
CHESTER        FAIR      66  48  52 NW7       29.92R
GROTON         PTCLDY    68  48  48 NW8       29.90R
WILLIMANTIC    CLEAR     66  45  46 NW8       29.92R

 IN RI

CITY           SKY/WX    TMP DP  RH WIND       PRES   REMARKS
PROVIDENCE     PTCLDY    66  43  43 W15G22    29.91R
BLOCK ISLAND   PTCLDY    66  50  55 W7        29.91R
WESTERLY       CLEAR     69  46  43 VRB7G16   29.91R

 IN MA

CITY           SKY/WX    TMP DP  RH WIND       PRES   REMARKS
BOSTON         PTCLDY    66  41  40 W16G26    29.87R
WORCESTER      CLEAR     57  40  52 W16G26    29.91R
WESTFIELD      CLEAR     60  40  47 W20G31    29.94R
PROVINCETOWN   CLEAR     66  52  59 W16       29.85R
NANTUCKET      CLEAR     68  57  68 W15       29.87R
$$

ANZ330-335-338-340-345-350-353-355-222300-
COASTAL MARINE OBSERVATIONS


STATION/POSITION TIME  SKY/WX   TEMP    WIND        PRES    VSBY  WAVE
                                AIR SEA DIR/SP/G                  HT/PER
                 (UTC)          (F)     (DEG/KT/KT) (MB)    (MI)  (FT/S)
NY HARB ENTRANCE 2200            67 70  310/ 19/ 21 1014.7          4/10
4S FIRE IS       2100               70                N/A           6/11
20S FIRE ISLAND  2100            68 68  300/ 17/ 21 1013.4          6/10
23SW MTP         2100                                 N/A           8/10
HUDSON CANYON    2200            69 71  300/ 14/ 16 1014.6          6/10
EXECUTION ROCKS  2200            66 70  310/ 16/ 25   N/A
WESTERN LI SOUND 2200            65     320/ 17/ 21   N/A           1/ 3
CENTRAL LI SOUND 2100            69 70  270/ 17/ 19   N/A           2/ 4
EASTERN LI SOUND 2100            70 68  310/ 12/ 16   N/A
ROBBINS REEF     2200            65     320/ 15/ 20 1014.1
$$


>>>>>>>>>>>>>>>>>>>>>>>>>>>> KEY <<<<<<<<<<<<<<<<<<<<<<<<<<<
>                                                          <
>     SKY/WX - SKY CONDITION/PRESENT WEATHER               <
>     TMP    - TEMPERATURE IN FAHRENHEIT                   <
>     DP     - DEWPOINT IN FAHRENHEIT                      <
>     RH     - RELATIVE HUMIDITY IN PERCENT                <
>     WIND   - DIRECTION AND SPEED IN MPH                  <
>     PRES   - MEAN SEA LEVEL PRESSURE IN INCHES OF HG     <
>     WCI    - WIND CHILL INDEX                            <
>     VSB    - VISIBILITY IN MILES                         <
>     HX     - HEAT INDEX                                  <
>     TC     - TEMPERATURE IN CELSIUS                      <
>     VRB    - VARIABLE WIND DIRECTION                     <
>                                                          <
>>>>>>>>>>>>>>>>>>>>>>>>>>>> KEY <<<<<<<<<<<<<<<<<<<<<<<<<<<





USA.gov is the U.S. government's official web portal to all federal, state and local government web resources and services.